sat.trackr.live / text

‹ back to catalog

STARLINK-30375

NORAD 57732 · 2023-131A

PAYLOAD ACTIVE UNKNOWN

§ Identity

Operator
Country
US
Launch date
2023-09-01
Launch site
AFETR
Launch vehicle
Mass (kg)
RCS (m²)

Purposes: comms

External: N2YO · Heavens-Above · Gunter

§ Orbital elements

Epoch: 2026-09-20T00:52:16.523904Z

Period
94.26 min
Inclination
43.0010°
Eccentricity
0.0001679
Mean motion
15.27610979 rev/d
Perigee alt
481.8 km
Apogee alt
484.1 km
Semi-major
6,861.1 km
B*
-3.6037e-4
RAAN
140.0436°
Arg perigee
258.3164°
Mean anomaly
101.7499°
Rev number
16,982

§ Raw data

STARLINK-303751 57732U 23131A   26263.03630236 -.00010175  00000+0 -36037-3 0  99932 57732  43.0010 140.0436 0001679 258.3164 101.7499 15.27610979169828

JSON: /api/v1/satellites/57732 · /tle

For live sub-satellite position, see the globe view (requires WebGL).

§ Visibility from observer

Set your observer location to see the next 7 days of passes ≥ 10°. The values pass through the URL so the page stays shareable.

No JS? Fill the form by hand. The geolocation button needs JavaScript.